Location: *
(55.6049°S, 142.1985°W)
Time: 00:50:09
(UTC+00:00)

NOAA 12 - Pass Details

Date: 12 May 2021
Orbit: 796 x 814 km, 98.5° (Epoch: 18 June)

Event Time Altitude Azimuth Distance (km) Brightness Sun altitude
Rises 14:12:53 0° 24° (NNE) 3,341 7.6 -25.2°
Reaches altitude 10° 14:15:12 10° 25° (NNE) 2,418 6.8 -24.8°
Maximum altitude 14:20:34 77° 110° (ESE) 856 4.2 -24.1°
Drops below altitude 10° 14:26:00 10° 194° (SSW) 2,449 6.5 -23.3°
Sets 14:28:22 0° 195° (SSW) 3,388 7.2 -23.0°
